Regional Weather Roundup
Issued by NWS

Home | Current Version | Previous Version | Graphics & Text | Print | Product List | Glossary On
Versions: 1 2 3 4 5 6 7 8 9 10 11 12 13 14 15 16 17 18 19 20 21 22 23 24 25 26 27
000
ASUS45 KCYS 251110
RWRWY

WYOMING REGIONAL WEATHER ROUNDUP
NATIONAL WEATHER SERVICE CHEYENNE WY
500 AM MDT THU AUG 25 2016

NOTE:  "FAIR" INDICATES FEW OR NO CLOUDS BELOW 12,000 FEET
WITH NO SIGNIFICANT WEATHER AND/OR OBSTRUCTIONS TO VISIBILITY.

WYZ001-251200-
YELLOWSTONE NATIONAL PARK

CITY           SKY/WX    TMP DP  RH WIND       PRES   REMARKS
LK YELLOWSTONE   N/A     29  29 100 CALM      30.38S
W YELLOWSTONE  NOT AVBL

$$
WYZ002>013-054>058-071-098>099-251200-
NORTHERN WYOMING

CITY           SKY/WX    TMP DP  RH WIND       PRES   REMARKS
JACKSON        FAIR      41  34  75 N6        30.29S
CODY           CLOUDY    48  39  71 CALM      30.32F
GREYBULL       CLOUDY    54  37  52 NW9       30.27F
WORLAND        CLOUDY    52  47  83 W3        30.30S
SHERIDAN       FAIR      50  41  71 W7        30.31S
BUFFALO        CLOUDY    51  38  60 CALM      30.33F
GILLETTE       FAIR      48  41  76 W7        30.30F
HULETT         PTSUNNY   50  41  71 CALM      30.31R
NEWCASTLE      CLOUDY    52  37  58 NW12G17   30.29R

$$
WYZ014>020-022>026-101>103-251200-
CENTRAL WYOMING

CITY           SKY/WX    TMP DP  RH WIND       PRES   REMARKS
BIG PINEY      FAIR      36  23  59 NW5       30.32S WCI  32
PINEDALE       FAIR      36  32  87 CALM      30.32S
DUBOIS         CLOUDY    43  37  81 SE10G17   30.35S
LANDER         CLOUDY    48  44  86 SE5       30.32F
RIVERTON       CLOUDY    48  46  93 NE3       30.33F
CASPER         CLOUDY    47  46  97 NE7       30.33F
DOUGLAS        CLOUDY    49  45  86 NW6       30.32R

$$
WYZ021-027>030-104>119-251200-
SOUTHERN WYOMING

CITY           SKY/WX    TMP DP  RH WIND       PRES   REMARKS
EVANSTON       FAIR      42  29  59 E6        30.29R
FORT BRIDGER   FAIR      41  34  74 NE5       30.33R
ROCK SPRINGS   NOT AVBL
DIXON          FAIR      38  31  73 E3        30.29R
RAWLINS        CLOUDY    49  40  71 NE10      30.31R
SARATOGA       FAIR      37  37 100 SE3       30.29R
LARAMIE        CLOUDY    44  43  96 E3        30.30R
CHEYENNE       FAIR      46  43  89 N8        30.28S
TORRINGTON     FAIR      51  47  86 N6        30.24R
PINE BLUFFS    FAIR      37  37 100 W5        30.27R WCI  34

$$




USA.gov is the U.S. government's official web portal to all federal, state and local government web resources and services.